[[{"header":{"parameterUnit":"m.s-1","parameterCategory":1,"la1":30.2991,"la2":30.254,"lo1":-89.0895,"lo2":-89.0444,"dy":0.0017,"dx":0.0017,"nx":28,"ny":28,"refTime":"2025-05-01T03:00:00:Z","depth":0,"parameterNumber":2,"parameterNumberName":"U-component_of_WINDS"},"data":[0,0,0,0,0,0,0,0,0,0,0,0,0,0,0,0,0,0,0,0,0,0,0,0,0,0,0,0,0,0,0,0,0,0,0,0,0,0,0,0,0,0,0,0,0,0,0,0,0,0,0,0,0,0,0,0,0,0,-3.1776,-3.1777,0,-3.181,-3.1811,-3.1811,-3.1776,-3.1775,-3.1773,-3.1772,-3.1807,-3.1809,-3.1811,0,0,0,0,0,0,0,0,0,0,0,0,0,-3.1682,-3.1684,-3.1776,-3.1777,-3.1777,-3.181,-3.1811,-3.1811,-3.1776,-3.1774,-3.1773,-3.1771,-3.1806,-3.1809,-3.1811,0,0,0,0,0,0,0,0,0,0,0,0,0,-3.172,-3.1684,-3.1776,-3.1764,-3.1763,-3.181,-3.1811,-3.1811,-3.1777,-3.1774,-3.1772,-3.177,-3.1805,-3.1809,-3.1812,-3.1873,0,0,-3.1822,-3.1823,0,0,0,0,0,0,0,0,-3.1718,-3.1724,-3.1765,-3.1765,-3.1764,-3.1787,-3.179,-3.1832,-3.1777,-3.1771,-3.1772,-3.1769,-3.1802,-3.1805,-3.1816,-3.1875,-3.1876,-3.1822,-3.1824,-3.1826,-3.1827,0,0,0,0,0,0,0,-3.1715,-3.1722,-3.179,-3.1766,-3.1765,-3.1757,-3.176,-3.1798,-3.1798,-3.1772,-3.1769,-3.1774,-3.1801,-3.1813,-3.1817,-3.1877,-3.1822,-3.1825,-3.1827,-3.1828,-3.1988,-3.1991,0,0,0,0,0,0,-3.1714,-3.172,-3.1789,-3.1791,-3.1735,-3.176,-3.1764,-3.1781,-3.1797,-3.1798,-3.1775,-3.1772,-3.1808,-3.1813,-3.1818,-3.1891,-3.1826,-3.1829,-3.1831,-3.1986,-3.1989,-3.1991,0,0,0,0,0,0,-3.1712,-3.1721,-3.1787,-3.1755,-3.1763,-3.1764,-3.1784,-3.1783,-3.1795,-3.18,-3.18,-3.1788,-3.1807,-3.1813,-3.186,-3.1892,-3.183,-3.1833,-3.1983,-3.1987,-3.199,-3.2037,0,0,0,0,0,0,-3.171,-3.172,-3.1743,-3.1756,-3.1764,-3.1828,-3.1786,-3.1785,-3.1801,-3.1797,-3.1811,-3.1812,-3.1806,-3.1855,-3.1863,-3.1895,-3.1836,-3.1981,-3.1985,-3.1989,-3.2033,-3.2042,-3.205,0,0,0,0,0,-3.1706,-3.1755,-3.1744,-3.1753,-3.1793,-3.183,-3.1835,-3.1827,-3.1804,-3.1827,-3.183,-3.1811,-3.1887,-3.186,-3.1869,-3.1902,-3.1979,-3.1984,-3.1989,-3.2029,-3.204,-3.2049,0,0,0,0,0,0,-3.1746,-3.1756,-3.1745,-3.1799,-3.1814,-3.1824,-3.1853,-3.1839,-3.1862,-3.1857,-3.1846,-3.185,-3.1899,-3.1906,-3.1875,-3.1963,-3.1929,-3.1936,-3.1957,-3.1967,-3.1975,-3.1972,-3.1839,0,0,0,0,0,-3.1761,-3.179,-3.1798,-3.1845,-3.1853,-3.1852,-3.1868,-3.1861,-3.1876,-3.1882,-3.1889,-3.1905,-3.1932,-3.195,-3.1976,-3.2034,-3.2037,-3.2062,-3.207,-3.2077,-3.2083,-3.2115,-3.2126,-3.2008,-3.2008,-3.2008,0,0,-3.1792,-3.1801,-3.182,-3.1853,-3.1864,-3.1894,-3.1858,-3.1891,-3.1914,-3.1887,-3.1931,-3.1937,-3.1954,-3.2007,-3.2031,-3.2014,-3.2116,-3.2083,-3.2089,-3.2091,-3.2121,-3.2132,-3.2142,-3.2012,-3.2011,-3.201,0,0,-3.1864,-3.1875,-3.1915,-3.1927,-3.1944,-3.1943,-3.1953,-3.1966,-3.1969,-3.2013,-3.1994,-3.2021,-3.2069,-3.2082,-3.2094,-3.2173,-3.2157,-3.2182,-3.2225,-3.2256,-3.2266,-3.2274,-3.2302,-3.2312,-3.2188,-3.2188,-3.2189,0,-3.1901,-3.1946,-3.1937,-3.1973,-3.1988,-3.1966,-3.2006,-3.2019,-3.2043,-3.2054,-3.2035,-3.2095,-3.2105,-3.216,-3.218,-3.2191,-3.2202,-3.218,-3.2265,-3.2273,-3.2281,-3.2307,-3.2318,-3.2191,-3.2191,-3.2191,-3.219,0,-3.199,-3.2022,-3.2052,-3.2077,-3.2096,-3.2134,-3.2131,-3.2151,-3.2143,-3.2144,-3.219,-3.2202,-3.2229,-3.2242,-3.2234,-3.2297,-3.2286,-3.2267,-3.2232,-3.2295,-3.232,-3.233,-3.2195,-3.2194,-3.2194,-3.2193,0,0,-3.2087,-3.2107,-3.2118,-3.2129,-3.2147,-3.2172,-3.2209,-3.2236,-3.2254,-3.2272,-3.2303,-3.2345,-3.2327,-3.2341,-3.2335,-3.2362,-3.2424,-3.2339,-3.2339,-3.2354,-3.2494,-3.2509,-3.2521,-3.2414,-3.2416,-3.2418,-3.2493,0,-3.2159,-3.2224,-3.2218,-3.2279,-3.2308,-3.2289,-3.2321,-3.2336,-3.2339,-3.2365,-3.2368,-3.2397,-3.2372,-3.238,-3.2407,-3.2411,-3.2452,-3.2406,-3.2443,-3.2444,-3.2438,-3.2533,-3.2548,-3.2619,-3.2502,-3.2504,-3.2505,0,-3.2252,-3.2274,-3.2338,-3.2352,-3.2364,-3.2394,-3.2418,-3.2443,-3.246,-3.246,-3.2478,-3.2467,-3.2505,-3.2471,-3.2523,-3.2492,-3.2507,-3.2512,-3.2514,-3.2517,-3.2478,-3.2538,-3.2641,-3.2652,-3.2521,-3.2519,-3.2518,0,-3.2316,-3.2361,-3.2406,-3.2416,-3.2434,-3.2455,-3.2463,-3.2478,-3.2495,-3.2517,-3.2528,-3.2554,-3.2568,-3.2589,-3.2586,-3.2561,-3.264,-3.2605,-3.2641,-3.2641,-3.2657,-3.2656,-3.2764,-3.2668,-3.2668,-3.2668,-3.2668,0,-3.2397,-3.2437,-3.2435,-3.2462,-3.2506,-3.2499,-3.2544,-3.255,-3.2564,-3.2592,-3.2577,-3.2604,-3.2598,-3.2626,-3.2624,-3.2667,-3.2674,-3.2675,-3.2674,-3.2676,-3.2676,-3.2685,-3.268,-3.2671,-3.267,-3.267,-3.2669,0,-3.2475,-3.2475,-3.2522,-3.2535,-3.254,-3.2572,-3.2583,-3.2609,-3.2612,-3.2648,-3.2656,-3.2659,-3.2691,-3.269,-3.2725,-3.2724,-3.2778,-3.2772,-3.2772,-3.2771,-3.2806,-3.2803,-3.2923,-3.2939,-3.2834,-3.2835,-3.2836,0,-3.2526,-3.2557,-3.2573,-3.2591,-3.2601,-3.263,-3.2647,-3.2642,-3.2661,-3.2683,-3.2707,-3.2737,-3.276,-3.2811,-3.2817,-3.2844,-3.2838,-3.2878,-3.2842,-3.2843,-3.2838,-3.2836,-3.2839,-3.2885,-3.2886,-3.2887,-3.2888,0,-3.2618,-3.2616,-3.2642,-3.2667,-3.2689,-3.2709,-3.2727,-3.2743,-3.274,-3.2762,-3.2793,-3.2812,-3.2848,-3.2878,-3.2905,-3.2914,-3.2901,-3.29,-3.2909,-3.2911,-3.291,-3.2911,-3.2791,-3.2897,-3.2896,-3.2895,-3.2895,-3.2894,-3.2684,-3.271,-3.2726,-3.2755,-3.2768,-3.2786,-3.2811,-3.2817,-3.2843,-3.2872,-3.2868,-3.2904,-3.292,-3.2955,-3.2966,-3.2994,-3.298,-3.2994,-3.2998,-3.3001,-3.3005,-3.2907,-3.2999,-3.2999,-3.2999,-3.2999,-3.2998,0,-3.2774,-3.2783,-3.281,-3.2836,-3.2859,-3.2845,-3.2865,-3.2885,-3.2917,-3.2934,-3.2957,-3.2994,-3.3024,-3.3032,-3.3061,-3.3082,-3.3076,-3.3089,-3.3087,-3.309,-3.3016,-3.3005,-3.3093,-3.3093,-3.3093,-3.3093,-3.3093,-3.3093,-3.2823,-3.2867,-3.2868,-3.2918,-3.2927,-3.2962,-3.2974,-3.2991,-3.3004,-3.3046,-3.307,-3.3076,-3.309,-3.3119,-3.3146,-3.3147,-3.3158,-3.3174,-3.3173,-3.3104,-3.3095,-3.3086,-3.3075,-3.3176,-3.3176,-3.3244,-3.3245,-3.3245]},{"header":{"parameterUnit":"m.s-1","parameterCategory":1,"la1":30.2991,"la2":30.254,"lo1":-89.0895,"lo2":-89.0444,"dy":0.0017,"dx":0.0017,"nx":28,"ny":28,"refTime":"2025-05-01T03:00:00:Z","depth":0,"parameterNumber":3,"parameterNumberName":"V-component_of_WINDS"},"data":[0,0,0,0,0,0,0,0,0,0,0,0,0,0,0,0,0,0,0,0,0,0,0,0,0,0,0,0,0,0,0,0,0,0,0,0,0,0,0,0,0,0,0,0,0,0,0,0,0,0,0,0,0,0,0,0,0,0,6.2951,6.2951,0,6.2955,6.2955,6.2955,6.2887,6.2885,6.2883,6.2882,6.2884,6.2886,6.2888,0,0,0,0,0,0,0,0,0,0,0,0,0,6.2885,6.2887,6.2951,6.2951,6.2951,6.2955,6.2955,6.2955,6.2887,6.2885,6.2883,6.2881,6.2884,6.2886,6.2888,0,0,0,0,0,0,0,0,0,0,0,0,0,6.2904,6.2887,6.2951,6.2918,6.2915,6.2955,6.2955,6.2955,6.2888,6.2885,6.2882,6.288,6.2883,6.2886,6.2888,6.2959,0,0,6.2896,6.2897,0,0,0,0,0,0,0,0,6.2903,6.2906,6.2923,6.292,6.2917,6.2918,6.2932,6.2956,6.2889,6.2898,6.2882,6.2879,6.2898,6.2899,6.2905,6.2959,6.2959,6.2896,6.2898,6.2899,6.29,0,0,0,0,0,0,0,6.2902,6.2906,6.2952,6.2923,6.292,6.2903,6.2902,6.2937,6.2913,6.2897,6.2892,6.2894,6.2895,6.2903,6.2905,6.2959,6.2896,6.2899,6.29,6.2901,6.3071,6.3074,0,0,0,0,0,0,6.2905,6.2905,6.2952,6.2953,6.2903,6.2906,6.2906,6.292,6.2913,6.2909,6.2896,6.2891,6.29,6.2902,6.2905,6.2987,6.2899,6.2902,6.2903,6.3068,6.3072,6.3075,0,0,0,0,0,0,6.2904,6.291,6.2952,6.2928,6.2932,6.291,6.2927,6.2922,6.2929,6.2912,6.2907,6.2908,6.2898,6.2901,6.2946,6.2986,6.2903,6.2905,6.3065,6.307,6.3074,6.3152,0,0,0,0,0,0,6.2902,6.291,6.2937,6.2929,6.2933,6.2994,6.293,6.2924,6.2934,6.2927,6.2922,6.2918,6.2896,6.2943,6.2949,6.2988,6.2907,6.3061,6.3067,6.3072,6.3145,6.3158,6.3169,0,0,0,0,0,6.29,6.2958,6.2938,6.2944,6.2967,6.2996,6.2999,6.2972,6.2938,6.2964,6.2953,6.2918,6.2981,6.2948,6.2954,6.2995,6.3059,6.3065,6.3072,6.314,6.3156,6.3169,0,0,0,0,0,0,6.2971,6.2957,6.2934,6.2992,6.2996,6.2985,6.3017,6.299,6.3003,6.2996,6.2962,6.2961,6.3012,6.3008,6.2971,6.3063,6.3014,6.3022,6.3063,6.3078,6.309,6.3089,6.291,0,0,0,0,0,6.2993,6.3019,6.3005,6.3057,6.3061,6.3039,6.3051,6.303,6.3033,6.3034,6.3026,6.303,6.305,6.3064,6.3082,6.3145,6.3142,6.3176,6.3188,6.3198,6.3205,6.3237,6.3252,6.3097,6.3097,6.3097,0,0,6.304,6.3035,6.3053,6.3071,6.3072,6.3099,6.3041,6.3072,6.3091,6.3039,6.308,6.3075,6.3077,6.3131,6.3155,6.313,6.3247,6.3206,6.3214,6.3216,6.3246,6.326,6.3273,6.3101,6.31,6.31,0,0,6.3137,6.3137,6.318,6.3182,6.3184,6.317,6.318,6.3174,6.3168,6.321,6.3171,6.3194,6.323,6.3232,6.3238,6.3339,6.3307,6.3346,6.3407,6.3439,6.3451,6.3462,6.3496,6.3509,6.3353,6.3353,6.3353,0,6.3194,6.3234,6.3206,6.3239,6.3248,6.3203,6.3246,6.3249,6.3257,6.3264,6.3236,6.328,6.3278,6.3332,6.3357,6.3364,6.3374,6.3345,6.3452,6.3462,6.3472,6.3504,6.3517,6.3358,6.3357,6.3357,6.3356,0,6.3303,6.3331,6.3366,6.3375,6.3388,6.3426,6.3404,6.342,6.3399,6.3387,6.343,6.3427,6.3443,6.3454,6.3434,6.3506,6.349,6.3458,6.3407,6.3491,6.3521,6.3534,6.3364,6.3363,6.3361,6.336,0,0,6.3444,6.3438,6.3451,6.3454,6.3454,6.3475,6.3511,6.3527,6.3542,6.3549,6.3578,6.361,6.358,6.3587,6.3567,6.3595,6.3674,6.3559,6.3559,6.358,6.3752,6.3775,6.379,6.3654,6.3656,6.3658,6.3751,0,6.3538,6.36,6.3576,6.3639,6.3664,6.3622,6.3654,6.3657,6.3648,6.3667,6.3657,6.368,6.3639,6.3643,6.3669,6.3659,6.3708,6.3652,6.3679,6.3681,6.3679,6.3806,6.383,6.3919,6.3763,6.3765,6.3766,0,6.3655,6.3668,6.3734,6.3729,6.3739,6.3768,6.378,6.38,6.3803,6.3794,6.3803,6.3776,6.3811,6.3762,6.381,6.3772,6.3782,6.3779,6.3782,6.3782,6.3727,6.3808,6.3946,6.3959,6.3785,6.3783,6.3782,0,6.375,6.3783,6.3827,6.3832,6.3827,6.3848,6.3848,6.3848,6.3859,6.3871,6.3877,6.3893,6.3901,6.3914,6.3892,6.3859,6.3942,6.3892,6.3935,6.3935,6.3953,6.3951,6.4093,6.3962,6.3962,6.3962,6.3962,0,6.3856,6.3898,6.3869,6.3896,6.3942,6.3914,6.396,6.3954,6.3955,6.398,6.3945,6.3968,6.3939,6.396,6.3943,6.3984,6.3989,6.3982,6.3977,6.3984,6.3985,6.3989,6.3982,6.3965,6.3965,6.3964,6.3963,0,6.3968,6.3951,6.3996,6.3989,6.3988,6.4022,6.4015,6.4039,6.4028,6.406,6.4066,6.4048,6.4071,6.4051,6.4073,6.4061,6.4116,6.4103,6.4115,6.4111,6.4155,6.415,6.4302,6.432,6.418,6.4181,6.4182,0,6.4037,6.4068,6.4064,6.4079,6.408,6.4104,6.4115,6.409,6.4103,6.4109,6.4132,6.4152,6.4167,6.4206,6.4194,6.4211,6.4197,6.4249,6.4199,6.4205,6.4196,6.4194,6.4196,6.4259,6.426,6.4262,6.4263,0,6.4159,6.4149,6.4167,6.4183,6.4198,6.4209,6.4217,6.4231,6.4205,6.4221,6.4245,6.4256,6.4279,6.4299,6.4312,6.4311,6.4282,6.4279,6.4289,6.4296,6.4302,6.4298,6.4141,6.4275,6.4274,6.4273,6.4272,6.4272,6.425,6.4276,6.4278,6.4299,6.4303,6.4311,6.4334,6.4326,6.4345,6.4361,6.4345,6.4373,6.4375,6.439,6.4392,6.4414,6.4392,6.4407,6.4411,6.4415,6.4421,6.43,6.4416,6.4416,6.4415,6.4415,6.4415,0,6.437,6.4369,6.4389,6.4402,6.4419,6.4392,6.44,6.4415,6.4441,6.4445,6.446,6.4487,6.4507,6.4498,6.4514,6.4533,6.4521,6.4538,6.4536,6.4536,6.444,6.4428,6.4548,6.4548,6.4548,6.4548,6.4548,6.4548,6.4434,6.4476,6.4466,6.4509,6.4508,6.4535,6.4542,6.455,6.4553,6.4585,6.4601,6.4595,6.4594,6.4611,6.4627,6.4624,6.4631,6.4654,6.4646,6.4556,6.4543,6.453,6.4519,6.4656,6.4656,6.474,6.474,6.4741]}]]